Theta_e
300 300 300 300 300 300 300 300 300 300 300 299 300 304 305 305 305 303 300 297 296 296 296 296 297 297 298 298 298 298 299 301 300 301 308 309 305 305
302 301 301 301 300 300 299 299 299 299 300 300 299 299 299 299 298 298 297 297 297 297 297 297 297 298 298 298 298 297 298 299 303 305 306 310 309 309
301 301 301 302 301 301 300 299 299 299 299 299 299 299 299 299 298 298 298 299 298 297 297 298 298 299 300 299 299 298 298 298 299 304 305 306 305 308
299 299 299 299 299 299 299 299 299 298 298 299 299 299 298 298 298 298 298 299 298 298 297 297 299 299 299 300 299 298 298 298 300 301 301 304 305 305
295 296 296 295 295 296 296 297 297 297 297 297 297 297 297 297 297 297 297 297 298 298 298 297 298 298 298 298 298 297 298 298 299 300 301 302 303 303
293 293 293 293 293 293 294 294 295 295 295 295 295 295 295 294 294 294 294 295 295 296 297 298 298 298 298 298 297 297 298 297 297 297 298 300 301 302
293 292 292 291 291 291 292 292 293 293 293 293 293 293 292 292 292 292 292 292 293 293 293 295 296 297 298 297 297 298 298 298 298 297 297 296 298 301
293 292 292 292 291 291 291 291 291 291 291 292 292 292 292 292 291 291 291 291 292 293 293 294 293 293 293 293 294 296 297 297 298 298 297 297 296 295
293 293 293 292 291 291 290 290 291 291 291 291 291 291 291 291 291 291 290 290 291 292 291 293 294 294 293 293 292 293 294 296 297 297 297 296 296 296
295 294 292 292 291 290 290 291 291 291 291 290 291 291 291 291 291 290 290 290 290 291 290 291 292 292 292 292 292 292 292 293 295 296 296 296 296 296
293 293 292 292 292 291 291 291 291 291 291 291 291 290 290 290 290 290 290 289 289 290 290 290 291 291 291 291 291 291 292 293 295 295 295 294 294 295
291 290 290 289 289 289 289 289 289 289 288 288 288 288 288 289 289 289 289 289 289 289 289 290 290 289 289 290 290 291 292 292 293 293 293 294 293 293
290 290 289 289 289 289 289 288 288 288 288 288 288 288 288 288 289 289 289 290 290 289 289 289 289 290 290 290 288 289 289 289 289 290 290 291 292 292
289 289 289 289 289 289 289 288 288 288 289 289 289 288 288 288 288 288 288 288 289 289 289 289 290 290 290 290 289 289 289 289 289 289 289 289 289 290
289 289 289 289 288 288 288 288 288 288 288 288 288 288 288 288 288 288 288 289 289 289 289 290 289 289 289 289 289 289 289 288 288 288 287 287 289 289
288 288 288 288 288 288 288 288 288 288 289 288 288 288 288 288 288 288 287 288 289 288 288 289 290 290 289 289 288 288 288 287 288 288 288 287 287 287
288 288 288 288 288 288 288 288 288 288 288 288 288 288 287 287 288 288 288 288 288 288 288 287 288 288 288 288 288 288 288 287 286 286 287 287 286 287
289 289 289 289 289 289 288 288 287 288 288 288 288 287 287 287 287 287 287 287 287 287 287 287 286 286 286 287 287 287 287 286 286 286 287 287 287 288
289 289 289 289 289 289 288 288 287 287 287 286 285 285 286 286 286 286 287 287 285 285 285 285 285 285 286 286 286 286 286 287 287 287 287 287 287 288
288 289 288 288 288 288 287 287 286 286 285 285 285 285 284 284 284 285 285 285 285 285 284 284 284 285 285 286 286 287 286 287 287 287 287 288 288 287
287 287 287 287 287 287 286 286 286 285 285 285 284 284 284 284 284 284 284 284 284 285 285 285 285 285 286 286 286 287 287 287 287 287 288 288 288 287
287 287 287 287 286 286 286 285 285 285 285 284 284 284 284 284 284 284 284 284 284 285 285 285 285 285 286 286 286 287 287 287 287 288 288 288 287 287
286 286 286 286 285 286 285 285 285 285 284 284 284 284 284 284 284 284 285 285 285 285 285 285 286 286 286 286 286 287 287 287 287 287 287 287 286 286
Wind_Speed
10 10 9 8 9 9 10 10 10 7 13 4 3 6 8 11 15 19 22 22 20 19 19 19 18 18 17 16 15 16 15 16 16 16 14 16 17 16
12 12 11 11 11 11 11 12 12 12 12 10 10 12 15 18 19 19 18 18 18 17 17 18 18 18 18 18 18 18 18 15 13 14 15 14 14 13
13 14 13 14 13 13 13 14 14 15 20 21 19 16 16 16 16 17 18 18 17 16 15 15 15 15 14 15 17 18 19 18 17 13 13 16 16 17
15 16 15 16 16 15 16 15 16 16 20 23 22 20 18 16 18 18 16 16 17 16 15 15 14 13 15 18 18 17 17 17 16 16 16 16 17 20
16 16 15 15 16 16 16 17 17 17 19 22 23 21 21 20 19 18 18 18 18 18 17 16 16 16 15 15 14 14 15 16 18 19 16 18 20 20
15 15 15 15 15 15 15 16 16 17 17 19 21 22 20 19 18 20 19 18 19 19 19 20 18 18 16 14 14 16 17 18 19 19 20 22 22 22
16 16 15 15 15 16 16 15 16 16 17 18 18 19 19 17 14 14 16 19 18 19 14 13 15 17 17 19 22 23 23 22 21 21 21 22 22 24
20 19 18 17 17 17 17 17 17 17 17 18 17 18 18 17 18 18 20 21 23 20 21 23 22 21 21 22 23 24 24 22 21 21 21 20 21 22
20 20 19 18 18 18 17 17 18 18 18 19 20 19 19 19 21 22 21 22 25 26 29 33 30 27 25 24 23 24 25 24 22 21 19 19 20 20
22 21 20 18 17 17 18 18 18 19 19 20 22 21 22 22 23 24 25 27 30 28 27 32 31 31 28 25 24 23 24 24 22 22 22 23 22 20
20 19 19 20 19 19 21 23 23 23 22 23 24 25 24 24 24 26 27 27 31 31 30 30 34 34 34 29 25 20 18 19 18 18 19 19 20 20
22 22 21 22 22 21 23 23 26 25 24 24 25 25 24 25 24 25 26 28 29 33 26 20 25 25 26 30 26 17 13 13 15 12 12 12 14 17
24 24 23 22 22 23 24 27 29 28 28 28 28 28 26 25 24 24 25 27 30 35 35 28 32 30 28 31 34 33 32 28 25 26 26 25 24 24
25 25 24 24 26 26 26 28 29 28 28 29 28 30 29 28 26 26 27 27 28 31 30 27 29 28 29 33 33 32 34 32 30 29 27 26 27 28
26 26 26 26 28 29 29 28 27 28 29 31 32 31 29 28 28 28 28 25 24 26 26 24 26 29 31 35 36 35 31 34 35 34 32 32 29 27
27 27 27 27 28 28 27 27 29 30 31 32 32 31 29 27 26 26 26 25 25 30 29 26 25 26 30 32 33 35 34 35 37 37 36 34 33 33
25 27 27 28 28 27 28 30 29 28 28 26 24 25 26 26 27 27 28 24 25 29 34 34 30 30 31 31 36 36 37 38 39 34 33 36 35 35
24 29 31 30 28 26 25 23 20 19 19 18 21 24 26 25 27 28 26 29 29 31 35 38 38 32 32 34 35 40 40 39 35 31 29 32 34 32
25 29 29 29 27 24 25 26 29 29 28 26 26 26 25 26 28 28 25 27 34 36 37 33 31 28 29 33 38 30 32 31 29 30 28 30 34 32
26 27 27 27 28 28 28 27 29 30 28 26 27 29 28 27 28 30 31 31 31 32 33 32 32 30 29 33 33 30 27 29 29 32 31 29 30 28
24 26 26 27 29 30 29 29 27 28 28 27 29 29 28 27 28 29 30 30 28 30 33 34 31 27 29 31 34 35 32 28 30 30 30 31 29 29
23 24 24 24 26 28 28 27 27 27 27 28 30 32 32 29 30 31 31 29 29 29 30 28 26 26 27 30 34 35 33 34 27 27 27 26 28 24
24 24 25 26 26 26 26 26 27 28 29 31 32 31 29 29 30 29 29 28 28 29 28 29 26 26 26 28 27 31 30 28 26 23 25 25 26 25
Wind_Direction
284 284 287 285 284 286 289 292 299 309 318 322 286 270 276 285 295 299 300 301 303 302 302 301 300 298 292 286 288 288 282 280 278 263 265 269 269 264
283 281 282 282 281 279 280 280 278 278 273 283 283 284 281 286 291 294 298 299 299 298 297 296 295 296 297 296 292 292 287 280 279 273 268 266 270 268
273 273 272 272 272 272 273 273 275 275 278 286 290 294 293 297 296 298 302 302 300 297 293 289 289 293 294 292 290 292 293 286 278 265 264 267 266 256
274 273 274 274 274 272 272 272 271 272 276 285 291 297 296 297 298 297 299 298 298 297 292 290 288 289 297 293 292 289 288 281 275 269 260 257 265 265
277 276 277 273 275 276 274 273 274 273 275 281 289 294 298 302 299 295 294 292 292 291 290 289 289 291 296 299 293 294 292 285 276 273 266 261 258 264
279 279 279 280 280 278 276 277 277 276 276 279 286 294 298 303 303 303 299 297 291 288 288 288 288 286 284 281 289 294 291 290 285 280 275 267 262 264
281 280 280 281 281 280 278 277 276 278 280 283 288 295 300 309 315 314 308 309 308 307 302 292 285 284 283 283 290 290 289 290 286 281 278 272 269 267
281 278 278 278 278 278 277 276 276 277 278 281 285 287 293 302 308 310 311 313 314 308 303 299 299 296 297 293 289 286 285 283 281 279 277 274 270 268
278 279 279 279 278 276 274 273 274 276 278 281 282 285 289 294 296 298 299 299 297 298 303 300 301 301 303 302 297 289 283 281 279 277 275 272 274 271
273 274 276 274 272 273 272 270 270 270 272 276 280 285 286 286 287 291 292 292 291 291 296 295 296 297 299 300 298 294 286 280 276 272 272 273 274 269
276 277 277 278 280 279 279 280 278 276 276 277 277 279 280 282 284 286 287 290 289 287 286 287 288 294 293 295 298 295 282 276 273 269 266 265 267 270
275 274 272 275 277 275 277 279 279 281 283 279 277 278 280 278 278 278 281 281 285 288 291 282 287 290 289 287 291 283 271 275 272 259 256 264 266 266
272 271 271 274 278 276 275 277 280 284 280 279 278 278 279 279 279 278 277 278 279 276 278 276 276 275 272 278 275 273 276 273 272 272 276 280 277 271
273 275 275 271 273 277 278 279 281 280 279 279 279 281 281 281 283 284 285 276 273 275 276 270 269 266 270 276 277 279 281 283 281 277 276 276 274 271
275 277 278 277 278 281 284 284 282 278 277 278 281 281 281 283 281 279 282 279 277 274 273 269 265 266 267 269 273 277 282 280 282 285 286 283 275 271
277 279 279 281 284 286 283 280 278 279 278 277 278 281 281 279 278 277 276 279 277 275 272 270 269 265 267 271 271 274 276 277 284 283 280 280 280 282
278 276 278 279 282 285 285 282 277 273 270 269 270 276 279 281 280 279 283 280 277 276 278 278 274 273 275 273 269 268 272 277 279 276 276 282 280 278
268 271 273 275 277 278 284 280 281 287 287 282 277 280 279 279 280 280 279 277 277 276 278 282 284 282 275 268 262 269 273 278 281 277 273 270 273 273
261 264 267 270 273 272 270 271 277 280 283 282 286 285 283 281 282 283 274 272 282 282 280 278 279 276 263 261 271 272 276 282 279 274 271 266 275 279
261 263 266 269 270 272 275 276 278 280 282 282 282 284 282 280 279 275 275 277 278 279 279 277 272 269 262 259 275 289 270 276 270 271 276 278 278 278
271 268 267 269 271 272 275 276 278 282 285 285 285 285 284 282 278 276 278 278 274 273 273 275 276 283 279 275 266 281 275 278 281 275 281 276 274 272
276 276 274 276 275 277 277 277 278 278 281 282 281 281 282 279 276 277 277 272 269 267 271 278 278 278 273 268 271 277 279 284 280 277 274 266 265 259
284 281 278 277 280 276 280 282 280 281 281 281 282 285 282 279 280 280 281 278 278 278 278 279 281 281 278 280 276 283 284 285 286 276 271 265 260 262